カタログに戻る

SL-8 R/B

運用中PO
NORAD 10777·ROCKET BODY·🇷🇺 Russia

打ち上げ Mar 31, 1978 から Plesetsk Cosmodrome

Loading…

次のパス (今後24時間)

TLE

最新Source: Space-Track

元期: Sep 14, 2026, 08:37 UTC

1 10777U 78034B   26257.35930280  .00000142  00000-0  12632-3 0  9990
2 10777  82.9393 238.9085 0027522  99.2309  63.7654 13.77760895435177

AllMySatでSL-8 R/Bをリアルタイム追跡

Download on the App Store